Location: Joplin, MO
(37.0842°N, 94.5133°W)
Time: 10:06:51
(UTC+02:00)

Transit 2A - Pass Details

Date: 02 April 2023
Orbit: 591 x 964 km, 66.7° (Epoch: 03 June)

Event Time Altitude Azimuth Distance (km) Brightness Sun altitude
Exits shadow 10:39:00 31° 62° (ENE) 1,441 7.8 -37.2°
Drops below altitude 10° 10:42:22 10° 40° (NE) 2,531 9.4 -36.8°
Sets 10:45:04 0° 35° (NE) 3,525 10.4 -36.4°
